Tracking 18850 objects as of 22-Nov-2017
HD Live streaming from Space Station
objects crossing your sky now

FLOCK 2K 02

Track FLOCK 2K 02 now!
10-day predictions
FLOCK 2K 02 is classified as:


NORAD ID: 42853
Int'l Code: 2017-042AE
Perigee: 464.6 km
Apogee: 482.3 km
Inclination: 97.0 °
Period: 93.9 minutes
Semi major axis: 6844 km
RCS: Unknown
Launch date: July 14, 2017
Source: United States (US)
Launch site: TYURATAM MISSILE AND SPACE COMPLEX (TTMTR)
aabbcc
Your satellite tracking list
Your tracking list is empty




NASA's NSSDC Master Catalog

Two Line Element Set (TLE):
1 42853U 17042AE  17326.03708159  .00003098  00000-0  98628-4 0  9995
2 42853  96.9951 228.0004 0012946 136.8611 223.3649 15.33196905 19839
Source of the keplerian elements: AFSPC